UMZ9190 DNYO-FKKR

Flight info

Callsign UMZ9190
Flight time N/A
Altitude 11000
Route ETRIS ETRIS1L
Aircraft AT46/M-SDFGIRY/S

Departure

Time 2026-04-20 12:52
Airport Yola Airport (DNYO)

Arrival

Time N/A
Airport Garoua International Airport (FKKR)
Time Latitude Longitude Altitude Speed Heading
2026-04-20 12:40 9.26669 12.42660 587 ft 0 kts 12°
2026-04-20 12:48 9.26674 12.42661 587 ft 7 kts 12°
2026-04-20 12:48 9.26733 12.42679 590 ft 6 kts
2026-04-20 12:48 9.26798 12.42701 593 ft 15 kts 66°
2026-04-20 12:48 9.26818 12.42792 542 ft 12 kts 80°
2026-04-20 12:49 9.26842 12.42843 599 ft 6 kts 28°
2026-04-20 12:49 9.26915 12.42849 598 ft 24 kts 349°
2026-04-20 12:49 9.26976 12.42838 599 ft 22 kts 349°
2026-04-20 12:50 9.26999 12.42833 600 ft 21 kts 349°
2026-04-20 12:50 9.27015 12.42831 600 ft 20 kts 351°
2026-04-20 12:50 9.27035 12.42824 600 ft 9 kts 323°
2026-04-20 12:51 9.27056 12.42804 600 ft 0 kts 13°
2026-04-20 12:51 9.27055 12.42811 600 ft 5 kts 115°
2026-04-20 12:51 9.27025 12.42828 600 ft 5 kts 168°
2026-04-20 12:51 9.26832 12.42863 599 ft 59 kts 170°
2026-04-20 12:52 9.26222 12.42966 598 ft 118 kts 171°
2026-04-20 12:52 9.25272 12.43097 755 ft 145 kts 172°
2026-04-20 12:52 9.24287 12.43240 1281 ft 145 kts 158°
2026-04-20 12:52 9.23519 12.43817 1778 ft 138 kts 117°
2026-04-20 12:53 9.23480 12.44741 2156 ft 143 kts 71°
2026-04-20 12:53 9.23862 12.45784 2348 ft 170 kts 69°
2026-04-20 12:53 9.24297 12.46960 2539 ft 189 kts 69°
2026-04-20 12:53 9.24762 12.48277 2826 ft 208 kts 69°
2026-04-20 12:54 9.25231 12.49700 3109 ft 220 kts 72°
2026-04-20 12:54 9.25667 12.51231 3396 ft 228 kts 74°
2026-04-20 12:54 9.26088 12.52779 3706 ft 233 kts 74°
2026-04-20 12:54 9.26522 12.54382 3996 ft 236 kts 74°
2026-04-20 12:55 9.26964 12.56004 4258 ft 239 kts 74°
2026-04-20 12:55 9.27408 12.57618 4558 ft 241 kts 73°
2026-04-20 12:55 9.27855 12.59256 4845 ft 243 kts 73°
2026-04-20 12:55 9.28304 12.60927 5093 ft 245 kts 74°
2026-04-20 12:56 9.28754 12.62585 5342 ft 245 kts 75°
2026-04-20 12:56 9.29204 12.64250 5558 ft 247 kts 74°
2026-04-20 12:56 9.29656 12.65942 5775 ft 247 kts 75°
2026-04-20 12:56 9.30112 12.67611 6023 ft 248 kts 74°
2026-04-20 12:57 9.30576 12.69310 6218 ft 250 kts 74°
2026-04-20 12:57 9.31034 12.70988 6440 ft 250 kts 73°
2026-04-20 12:57 9.31507 12.72683 6652 ft 249 kts 74°
2026-04-20 12:57 9.31972 12.74357 6902 ft 247 kts 73°
2026-04-20 12:58 9.32446 12.76042 7123 ft 247 kts 73°
2026-04-20 12:58 9.32906 12.77707 7337 ft 246 kts 74°
2026-04-20 12:58 9.33350 12.79374 7534 ft 246 kts 74°
2026-04-20 12:58 9.33797 12.81057 7755 ft 246 kts 74°
2026-04-20 12:59 9.33977 12.82763 7861 ft 249 kts 92°
2026-04-20 12:59 9.33802 12.84542 7943 ft 254 kts 94°
2026-04-20 12:59 9.33665 12.86319 8026 ft 256 kts 91°
2026-04-20 12:59 9.33621 12.88135 8120 ft 257 kts 88°
2026-04-20 13:00 9.33639 12.89938 8208 ft 257 kts 87°
2026-04-20 13:00 9.33668 12.91762 8314 ft 258 kts 87°
2026-04-20 13:00 9.33695 12.93567 8381 ft 259 kts 88°
2026-04-20 13:00 9.33712 12.95433 8235 ft 269 kts 88°
2026-04-20 13:01 9.33709 12.97311 8004 ft 259 kts 89°
2026-04-20 13:01 9.33694 12.99085 7786 ft 249 kts 89°
2026-04-20 13:01 9.33669 13.00813 7571 ft 241 kts 89°
2026-04-20 13:01 9.33646 13.02478 7359 ft 235 kts 89°
2026-04-20 13:02 9.33619 13.04107 7153 ft 230 kts 89°
2026-04-20 13:02 9.33519 13.05705 6939 ft 227 kts 94°
2026-04-20 13:02 9.33331 13.07324 6544 ft 234 kts 95°
2026-04-20 13:02 9.33113 13.08958 6111 ft 237 kts 96°
2026-04-20 13:03 9.32879 13.10622 5656 ft 238 kts 96°
2026-04-20 13:03 9.32647 13.12276 5185 ft 239 kts 95°
2026-04-20 13:03 9.32463 13.13946 4880 ft 234 kts 94°
2026-04-20 13:03 9.32338 13.15560 4583 ft 229 kts 92°
2026-04-20 13:04 9.32247 13.17145 4300 ft 225 kts 92°
2026-04-20 13:04 9.32290 13.18695 4029 ft 219 kts 83°
2026-04-20 13:04 9.32449 13.20162 3784 ft 190 kts 82°
2026-04-20 13:04 9.32544 13.21407 3548 ft 170 kts 85°
2026-04-20 13:05 9.32598 13.22559 3364 ft 158 kts 83°
2026-04-20 13:05 9.32693 13.23657 3173 ft 156 kts 83°
2026-04-20 13:05 9.32767 13.24753 2984 ft 152 kts 86°
2026-04-20 13:05 9.32819 13.25808 2792 ft 151 kts 84°
2026-04-20 13:06 9.32892 13.26588 2665 ft 153 kts 84°